Regional Weather Roundup
Issued by NWS

Home | Current Version | Previous Version | Text Only | Print | Product List | Glossary Off
Versions: 1 2 3 4 5 6 7 8 9 10 11 12 13 14 15 16 17 18 19 20 21 22 23 24 25 26 27 28 29 30 31 32 33 34 35 36 37 38 39 40 41 42 43 44 45 46 47 48 49 50

000
ASUS43 KTOP 232159
RWRKS

WEATHER ROUNDUP FOR KANSAS
NATIONAL WEATHER SERVICE GOODLAND KS
400 PM CST MON JAN 23 2017

NOTE:  "FAIR" INDICATES FEW OR NO CLOUDS BELOW 12,000 FEET WITH NO
SIGNIFICANT WEATHER AND/OR OBSTRUCTIONS TO VISIBILITY.

KSZ001>006-013>018-027>032-041>047-232300-
NORTHWEST KANSAS

CITY           SKY/WX    TMP DP  RH WIND       PRES   REMARKS
GOODLAND       SUNNY     56  28  34 E5        29.54F
HAYS           SUNNY     57  34  41 S17       29.61F
HILL CITY      SUNNY     57  31  37 S14       29.59F
RUSSELL        SUNNY     54  33  45 S20       29.62F
$$

KSZ061>065-074>080-084>089-232300-
SOUTHWEST KANSAS

CITY           SKY/WX    TMP DP  RH WIND       PRES   REMARKS
DODGE CITY     SUNNY     61  30  31 S15       29.61F
ELKHART          N/A     67  28  23 W17         N/A
GARDEN CITY    SUNNY     58  33  39 S6        29.59F
GREAT BEND     SUNNY     55  35  47 S23       29.63F
LIBERAL          N/A     70  30  23 W18G25    29.60F
$$

KSZ066>073-081>083-090>101-232300-
SOUTHEAST KANSAS

CITY           SKY/WX    TMP DP  RH WIND       PRES   REMARKS
CHANUTE        SUNNY     52  35  52 SE10      29.80S
COFFEYVILLE    SUNNY     54  35  48 SE7       29.81F
HUTCHINSON     SUNNY     54  32  43 S20G28    29.70F
MEDICINE LODGE   N/A     56  34  43 S17       29.67F
NEWTON         SUNNY     52  34  50 S18       29.72F
PARSONS        SUNNY     53  35  50 SE6       29.81F
WICHITA INTL   SUNNY     54  33  45 S20       29.73S
WICHITA JABRA  SUNNY     54  32  43 S14       29.73F
WINFIELD       SUNNY     56  30  37 S15G26    29.75F
$$

KSZ007>012-019>026-033>040-048>060-102>105-232300-
NORTHEAST KANSAS

CITY           SKY/WX    TMP DP  RH WIND       PRES   REMARKS
CONCORDIA      SUNNY     53  30  41 S12       29.69F
EMPORIA        SUNNY     54  31  41 S10       29.76S
LAWRENCE       SUNNY     41  34  76 E9        29.82F HAZE
MANHATTAN      SUNNY     48  36  63 E13       29.75S
OLATHE IND     SUNNY     43  34  70 E6        29.82F
OLATHE EXE     SUNNY     42  33  70 SE6       29.82S
SALINA         SUNNY     55  32  41 S15G22    29.71F
TOPEKA BILLARD SUNNY     42  35  76 E7        29.81S
TOPEKA FORBES  SUNNY     43  35  73 E12       29.80R
$$



USA.gov is the U.S. government's official web portal to all federal, state and local government web resources and services.